カタログに戻る

STARLINK-1020

運用中通信VLEO
NORAD 44725·PAYLOAD·🇺🇸 United States

打ち上げ Nov 11, 2019 から Cape Canaveral Space Force Station

Loading…

次のパス (今後24時間)

TLE

最新Source: CelesTrak SupGP

元期: Sep 14, 2026, 20:15 UTC

1 44725C 19074N   26257.84423611  .00067634  00000+0  57054-3 0  2570
2 44725  53.1508  15.3161 0001850 358.2795  34.0273 15.69099164    16

AllMySatでSTARLINK-1020をリアルタイム追跡

Download on the App Store